Regional Weather Roundup
Issued by NWS

Home | Current Version | Previous Version | Text Only | Print | Product List | Glossary Off
Versions: 1 2 3 4 5 6 7 8 9 10 11 12 13 14 15 16 17 18 19 20 21 22 23 24 25 26 27 28 29 30 31 32 33 34 35 36 37 38 39 40 41 42 43 44 45 46 47 48 49 50

000
ASUS43 KMPX 252010
RWRMN
WEATHER ROUNDUP FOR MINNESOTA
NATIONAL WEATHER SERVICE TWIN CITIES/CHANHASSEN MN
300 PM CDT SUN JUN 25 2017


NOTE: "FAIR" INDICATES FEW OR NO CLOUDS BELOW 12,000 FEET WITH NO
SIGNIFICANT WEATHER AND/OR OBSTRUCTIONS TO VISIBILITY. N/A MEANS
CURRENT SKY AND/OR WEATHER CONDITIONS ARE NOT AVAILABLE.

MNZ060>063-068>070-252100-
   Twin Cities Metro

CITY           SKY/WX    TMP DP  RH WIND       PRES   REMARKS
TWIN CITIES    PTSUNNY   68  43  40 NW17G24   30.14S
ST PAUL        MOSUNNY   66  44  45 NW20G28   30.13F
CRYSTAL        MOSUNNY   66  39  37 W17G26    30.13F
BLAINE         MOSUNNY   66  45  45 NW17      30.13F
LAKEVILLE      MOSUNNY   64  45  48 NW14G26   30.15S
EDEN PRAIRIE   PTSUNNY   70  43  37 W16G23    30.14S
SOUTH ST PAUL  MOSUNNY   67  43  41 NW18      30.13F
LAKE ELMO      FAIR      64  46  52 NW14G21   30.14S
$$
MNZ001>005-007-008-013>017-022>024-027-028-252100-
   Northwest Minnesota

CITY           SKY/WX    TMP DP  RH WIND       PRES   REMARKS
BEMIDJI        LGT RAIN  56  47  73 N12G17    30.16S
HALLOCK        MOSUNNY   64  43  45 NW15G23   30.19S
ROSEAU         SUNNY     59  48  67 NW14G20   30.18S
WARROAD        LGT RAIN  55  50  82 N14       30.19R
THIEF RVR FALL CLOUDY    61  42  49 NW15      30.19F
CROOKSTON      MOSUNNY   63  43  48 N15G21    30.20S
FOSSTON        PTSUNNY   61  43  51 NW13G23   30.19S
DETROIT LAKES  SUNNY     63  41  45 NW15      30.20F
MOORHEAD       SUNNY     68  39  34 NW16      30.19F
PARK RAPIDS    PTSUNNY   63  39  41 NW18      30.16F
MAHNOMEN       MOCLDY    60  41  48 NW18G26   30.18F
$$
MNZ006-009>011-018-025>026-252100-
   North Central Minnesota

CITY           SKY/WX    TMP DP  RH WIND       PRES   REMARKS
BAUDETTE       PTSUNNY   58  45  62 NW12      30.16R
FLAG ISLAND    MOSUNNY   55  43  62 NW13      30.15S
INTL FALLS     CLOUDY    57  42  57 N7        30.12S
WASKISH        CLOUDY    54  50  87 NW3       30.17S
BIG FORK       RAIN      48  45  87 N5G17     30.14R
LONGVILLE      MOSUNNY   61  45  55 NW9G17    30.14F
GRAND RAPIDS   PTSUNNY   60  44  55 NW17G26   30.14S
CRANE LAKE     LGT RAIN  48  46  93 N7        30.13S
ORR            CLOUDY    54  45  71 N3        30.09F
COOK           CLOUDY    54  46  76 N9        30.11F
WALKER         MOCLDY    60  41  49 NW17G28   30.15S
$$
MNZ012-019>021-037-252100-
   Northeast Minnesota

CITY           SKY/WX    TMP DP  RH WIND       PRES   REMARKS
DULUTH         PTSUNNY   58  45  62 N15G24    30.07S
ELY            RAIN      48  48 100 NW9       30.08S
HIBBING        PTSUNNY   58  43  57 N16G29    30.09F
EVELETH        PTSUNNY   53  41  64 NW10G20   30.11S
DULUTH HARBOR  PTSUNNY   63  46  55 NW17G25   30.08S
TWO HARBORS    CLOUDY    57  50  77 NW10G18   30.05R
SILVER BAY     DRIZZLE   55  52  88 NW9       30.03S
GRAND MARAIS     N/A     48  45  89 NE7       30.04S
G MARAIS ARPRT RAIN      48  45  87 E3        30.04S
$$
MNZ029>031-032-039>041-046>048-054>057-064-252100-
   West Central Minnesota

CITY           SKY/WX    TMP DP  RH WIND       PRES   REMARKS
FERGUS FALLS   MOSUNNY   66  45  45 N12G18    30.17F
WHEATON        PTSUNNY   64  43  45 NW9       30.22F
MORRIS         MOSUNNY   66  43  42 NW15      30.20F
ALEXANDRIA     PTSUNNY   64  42  44 NW16G24   30.20F
ELBOW LAKE     FAIR      63  45  51 W12       30.20F
WADENA         PTSUNNY   63  43  48 NW13G24   30.17F
GLENWOOD       MOSUNNY   64  43  45 NW15G24   30.20F
APPLETON       PTSUNNY   68  39  34 NW13G24   30.20F
BENSON         MOSUNNY   66  39  37 N16G24    30.22F
ORTONVILLE     PTSUNNY   66  43  42 NW10      30.21F
MADISON        MOSUNNY   68  45  42 NW13G23   30.22F
WILLMAR        FAIR      66  43  42 NW20G25   30.21F
$$
MNZ033>034-036-042>043-049>051-058-059-252100-
   Central Minnesota

CITY           SKY/WX    TMP DP  RH WIND       PRES   REMARKS
ST CLOUD       PTSUNNY   66  42  41 NW18      30.15S
SAUK CENTRE    MOCLDY    62  40  43 NW16G26   30.19S
PAYNESVILLE    PTSUNNY   65  38  37 NW14G24   30.19F
AITKIN         MOSUNNY   61  43  51 W13G24    30.12R
PINE RIVER     MOSUNNY   63  46  55 NW10      30.17F
BRAINERD       CLOUDY    61  39  44 W14G26    30.15F
STAPLES        PTSUNNY   64  37  36 NW9G24    30.16F
LONG PRAIRIE   PTSUNNY   61  41  48 W15G25    30.18F
LITTLE FALLS   MOSUNNY   64  36  34 NW13G22   30.16F
LITCHFIELD     MOSUNNY   66  45  45 NW13G21   30.19S
BUFFALO        PTSUNNY   66  40  39 W14G20    30.17S
MAPLE LAKE     PTSUNNY   66  45  46 W14G21    30.17S
HUTCHINSON     MOSUNNY   67  44  43 W18G25    30.19S
$$
MNZ037-044-045-052-053-252100-
   East Central Minnesota

CITY           SKY/WX    TMP DP  RH WIND       PRES   REMARKS
PRINCETON      PTSUNNY   70  43  37 NW16      30.14S
MORA           MOSUNNY   64  43  45 NW18G24   30.13F
CAMBRIDGE      PTSUNNY   66  46  48 W14G22    30.12R
RUSH CITY      MOSUNNY   64  46  52 NW14G20   30.12S
MOOSE LAKE     PTSUNNY   59  45  58 W6G21     30.09S
HINCKLEY       LGT RAIN  59  48  67 NW14G24   30.12R
CLOQUET        MOSUNNY   63  43  48 NW18G24   30.08F
MCGREGOR       PTSUNNY   59  50  72 NW14G20   30.11F
$$
MNZ071>073-080-081-089-090-097-098-252100-
   Southwest Minnesota

CITY           SKY/WX    TMP DP  RH WIND       PRES   REMARKS
MONTEVIDEO     PTSUNNY   68  43  40 N14G20    30.22F
GRANITE FALLS  PTSUNNY   69  44  40 NW17G28   30.23F
CANBY          PTSUNNY   67  42  40 CALM      30.24F
MARSHALL       PTSUNNY   66  42  41 N21       30.22F
REDWOOD FALLS  MOSUNNY   67  39  35 N17G25    30.20F
OLIVIA         PTSUNNY   68  41  37 NW22G29   30.19F
PIPESTONE      MOSUNNY   70  39  32 N13G21    30.24F
WINDOM         CLOUDY    66  37  34 NW18G26   30.23S
WORTHINGTON    PTSUNNY   66  44  45 NW12G21   30.24F
JACKSON        PTSUNNY   66  41  39 NW17G23   30.23F
TRACY          PTSUNNY   68  43  39 N16G24    30.23F
SLAYTON        MOSUNNY   66  42  41 NW14G25   30.26S
$$
MNZ065>067-074>077-082>085-091>093-252100-
   South Central Minnesota

CITY           SKY/WX    TMP DP  RH WIND       PRES   REMARKS
MANKATO        MOSUNNY   66  40  38 NW17G29   30.18F
NEW ULM        MOSUNNY   66  37  34 NW20G30   30.19S
ST JAMES       SUNNY     66  39  37 NW21G30   30.21S
FAIRMONT       PTSUNNY   66  40  38 NW18G28   30.21F
GLENCOE        PTSUNNY   67  46  47 NW16G26   30.17S
FARIBAULT      MOSUNNY   66  43  42 W16G24    30.16F
OWATONNA       MOSUNNY   66  46  48 W16G30    30.16F
WASECA         PTSUNNY   64  43  45 NW14G23   30.19S
ALBERT LEA     MOSUNNY   66  43  42 NW12      30.18S
$$
MNZ078>079-086>088-094>096-252100-
   Southeast Minnesota

CITY           SKY/WX    TMP DP  RH WIND       PRES   REMARKS
ROCHESTER      CLOUDY    62  49  62 NW18G26   30.16F
RED WING       CLOUDY    64  45  48 W13       30.12S
STANTON        PTSUNNY   66  45  46 NW14G24   30.14S
DODGE CENTER   MOSUNNY   63  46  55 NW16G23   30.16F
WINONA           N/A     61  50  67 W12G20    30.13F
AUSTIN           N/A     63  45  51 NW18G24   30.17S
PRESTON        CLOUDY    59  48  68 NW13G22   30.16F
$$
ABBREVIATIONS USED IN REMARKS
   TC - TEMPERATURES IN CELSIUS
  WCI - WIND CHILL INDEX
   HX - HEAT INDEX
  VSB - VISIBILITY
$$




USA.gov is the U.S. government's official web portal to all federal, state and local government web resources and services.